Time,TemperatureF,DewpointF,PressureIn,WindDirection,WindDirectionDegrees,WindSpeedMPH,WindSpeedGustMPH,Humidity,HourlyPrecipIn,Conditions,Clouds,dailyrainin,SoftwareType,DateUTC
2013-01-29 00:00:00,32.7,30.9,29.87,South,171,1.0,10.0,93,0.00,,,0.00,Wunderground v.1.15,2013-01-29 06:00:00,
2013-01-29 00:10:00,32.9,31.1,29.86,SSE,153,1.0,10.0,93,0.00,,,0.00,Wunderground v.1.15,2013-01-29 06:10:00,
2013-01-29 00:15:00,33.0,31.2,29.85,SSE,159,1.0,10.0,93,0.00,,,0.00,Wunderground v.1.15,2013-01-29 06:15:00,
2013-01-29 00:20:00,33.3,31.5,29.84,SSE,159,3.0,3.0,93,0.00,,,0.00,Wunderground v.1.15,2013-01-29 06:20:00,
2013-01-29 00:25:00,33.5,31.7,29.84,SE,143,3.0,4.0,93,0.00,,,0.00,Wunderground v.1.15,2013-01-29 06:25:00,
2013-01-29 00:35:00,33.7,31.9,29.82,SE,146,3.0,4.0,93,0.00,,,0.00,Wunderground v.1.15,2013-01-29 06:35:00,
2013-01-29 00:40:00,33.9,32.1,29.82,SSE,151,3.0,3.0,93,0.00,,,0.00,Wunderground v.1.15,2013-01-29 06:40:00,
2013-01-29 00:45:00,33.9,32.1,29.83,SW,215,3.0,10.0,93,0.00,,,0.00,Wunderground v.1.15,2013-01-29 06:45:00,
2013-01-29 01:00:00,34.0,32.2,29.81,SSE,165,2.0,2.0,93,0.00,,,0.01,Wunderground v.1.15,2013-01-29 07:00:00,
2013-01-29 01:05:00,34.0,32.2,29.78,ESE,111,2.0,4.0,93,0.00,,,0.01,Wunderground v.1.15,2013-01-29 07:05:00,
2013-01-29 01:10:00,34.1,32.3,29.79,SW,234,3.0,3.0,93,0.00,,,0.01,Wunderground v.1.15,2013-01-29 07:10:00,
2013-01-29 01:15:00,34.1,32.3,29.80,SW,217,3.0,10.0,93,0.00,,,0.01,Wunderground v.1.15,2013-01-29 07:15:00,
2013-01-29 01:20:00,34.3,32.5,29.82,WSW,246,3.0,10.0,93,0.00,,,0.01,Wunderground v.1.15,2013-01-29 07:20:00,
2013-01-29 01:25:00,34.3,32.5,29.81,SW,217,4.0,10.0,93,0.00,,,0.01,Wunderground v.1.15,2013-01-29 07:25:00,
2013-01-29 01:30:00,34.3,32.5,29.81,SSW,205,3.0,3.0,93,0.00,,,0.01,Wunderground v.1.15,2013-01-29 07:30:00,
2013-01-29 01:35:00,34.3,32.5,29.81,SSW,198,2.0,10.0,93,0.00,,,0.01,Wunderground v.1.15,2013-01-29 07:35:00,
2013-01-29 01:45:00,34.4,32.6,29.80,SSE,148,2.0,4.0,93,0.00,,,0.01,Wunderground v.1.15,2013-01-29 07:45:00,
2013-01-29 01:50:00,34.4,32.6,29.79,SSE,153,2.0,10.0,93,0.00,,,0.01,Wunderground v.1.15,2013-01-29 07:50:00,
2013-01-29 01:55:00,34.4,32.6,29.78,SSE,168,1.0,10.0,93,0.00,,,0.01,Wunderground v.1.15,2013-01-29 07:55:00,
2013-01-29 02:00:00,34.4,32.6,29.79,South,187,1.0,1.0,93,0.00,,,0.01,Wunderground v.1.15,2013-01-29 08:00:00,
2013-01-29 02:05:00,34.4,32.6,29.78,South,187,1.0,10.0,93,0.00,,,0.01,Wunderground v.1.15,2013-01-29 08:05:00,
2013-01-29 02:10:00,34.4,32.6,29.78,South,184,1.0,10.0,93,0.00,,,0.01,Wunderground v.1.15,2013-01-29 08:10:00,
2013-01-29 02:20:00,34.5,32.7,29.77,ESE,120,1.0,10.0,93,0.00,,,0.01,Wunderground v.1.15,2013-01-29 08:20:00,
2013-01-29 02:30:00,34.6,32.8,29.76,SSW,200,3.0,10.0,93,0.00,,,0.01,Wunderground v.1.15,2013-01-29 08:30:00,
2013-01-29 02:35:00,34.6,32.8,29.76,SE,146,4.0,10.0,93,0.00,,,0.01,Wunderground v.1.15,2013-01-29 08:35:00,
2013-01-29 02:40:00,34.7,32.9,29.76,WSW,244,4.0,4.0,93,0.00,,,0.01,Wunderground v.1.15,2013-01-29 08:40:00,
2013-01-29 02:45:00,34.8,33.0,29.76,South,179,4.0,5.0,93,0.00,,,0.01,Wunderground v.1.15,2013-01-29 08:45:00,
2013-01-29 02:50:00,34.9,33.1,29.76,SSW,192,6.0,6.0,93,0.00,,,0.01,Wunderground v.1.15,2013-01-29 08:50:00,
2013-01-29 02:55:00,34.9,33.1,29.76,NW,304,5.0,10.0,93,0.00,,,0.01,Wunderground v.1.15,2013-01-29 08:55:00,
2013-01-29 03:00:00,34.9,33.1,29.76,SW,220,3.0,10.0,93,0.00,,,0.02,Wunderground v.1.15,2013-01-29 09:00:00,
2013-01-29 03:05:00,34.9,33.1,29.76,South,171,2.0,10.0,93,0.07,,,0.03,Wunderground v.1.15,2013-01-29 09:05:00,
2013-01-29 03:10:00,34.9,33.1,29.75,South,190,2.0,10.0,93,0.12,,,0.04,Wunderground v.1.15,2013-01-29 09:10:00,
2013-01-29 03:15:00,34.8,33.0,29.74,South,172,2.0,10.0,93,0.11,,,0.05,Wunderground v.1.15,2013-01-29 09:15:00,
2013-01-29 03:20:00,34.7,32.9,29.73,SSE,151,3.0,10.0,93,0.14,,,0.06,Wunderground v.1.15,2013-01-29 09:20:00,
2013-01-29 03:25:00,34.6,32.8,29.74,WSW,249,2.0,10.0,93,0.12,,,0.07,Wunderground v.1.15,2013-01-29 09:25:00,
2013-01-29 03:30:00,34.5,32.7,29.74,WSW,248,1.0,10.0,93,0.15,,,0.08,Wunderground v.1.15,2013-01-29 09:30:00,
2013-01-29 03:35:00,34.5,33.0,29.73,SSE,159,1.0,10.0,94,0.13,,,0.09,Wunderground v.1.15,2013-01-29 09:35:00,
2013-01-29 03:40:00,34.4,32.9,29.73,SSE,159,2.0,2.0,94,0.15,,,0.10,Wunderground v.1.15,2013-01-29 09:40:00,
2013-01-29 03:45:00,34.4,32.9,29.73,South,173,1.0,10.0,94,0.20,,,0.12,Wunderground v.1.15,2013-01-29 09:45:00,
2013-01-29 03:50:00,34.4,32.9,29.72,SSE,159,1.0,10.0,94,0.16,,,0.13,Wunderground v.1.15,2013-01-29 09:50:00,
2013-01-29 03:55:00,34.3,32.8,29.71,South,191,2.0,10.0,94,0.14,,,0.15,Wunderground v.1.15,2013-01-29 09:55:00,
2013-01-29 04:00:00,34.3,32.8,29.70,South,191,2.0,10.0,94,0.14,,,0.16,Wunderground v.1.15,2013-01-29 10:00:00,
2013-01-29 04:05:00,34.2,32.7,29.69,SSE,147,3.0,10.0,94,0.10,,,0.17,Wunderground v.1.15,2013-01-29 10:05:00,
2013-01-29 04:10:00,34.2,32.7,29.69,South,175,3.0,3.0,94,0.10,,,0.17,Wunderground v.1.15,2013-01-29 10:10:00,
2013-01-29 04:15:00,34.2,32.7,29.69,SSW,202,3.0,10.0,94,0.10,,,0.18,Wunderground v.1.15,2013-01-29 10:15:00,
2013-01-29 04:20:00,34.2,32.7,29.68,SE,146,2.0,10.0,94,0.08,,,0.19,Wunderground v.1.15,2013-01-29 10:20:00,
2013-01-29 04:30:00,34.2,32.7,29.67,South,171,3.0,3.0,94,0.08,,,0.20,Wunderground v.1.15,2013-01-29 10:30:00,
2013-01-29 04:35:00,34.2,32.7,29.67,SSE,164,2.0,5.0,94,0.07,,,0.20,Wunderground v.1.15,2013-01-29 10:35:00,
2013-01-29 04:40:00,34.2,32.7,29.68,SSE,151,2.0,2.0,94,0.06,,,0.21,Wunderground v.1.15,2013-01-29 10:40:00,
2013-01-29 04:50:00,34.2,32.7,29.67,SSE,157,2.0,10.0,94,0.05,,,0.22,Wunderground v.1.15,2013-01-29 10:50:00,
2013-01-29 04:55:00,34.2,32.7,29.67,South,191,3.0,10.0,94,0.05,,,0.22,Wunderground v.1.15,2013-01-29 10:55:00,
2013-01-29 05:00:00,34.2,32.7,29.67,SSW,208,2.0,10.0,94,0.05,,,0.22,Wunderground v.1.15,2013-01-29 11:00:00,
2013-01-29 05:05:00,34.4,32.9,29.67,SSE,148,3.0,10.0,94,0.00,,,0.22,Wunderground v.1.15,2013-01-29 11:05:00,
2013-01-29 05:10:00,34.5,33.0,29.66,SSE,156,3.0,10.0,94,0.00,,,0.22,Wunderground v.1.15,2013-01-29 11:10:00,
2013-01-29 05:15:00,34.6,33.1,29.66,SSE,161,3.0,10.0,94,0.00,,,0.22,Wunderground v.1.15,2013-01-29 11:15:00,
2013-01-29 05:20:00,34.6,33.1,29.66,SSW,212,3.0,10.0,94,0.00,,,0.23,Wunderground v.1.15,2013-01-29 11:20:00,
2013-01-29 05:25:00,34.6,33.1,29.66,SSW,207,2.0,10.0,94,0.00,,,0.23,Wunderground v.1.15,2013-01-29 11:25:00,
2013-01-29 05:30:00,34.6,33.1,29.65,South,180,2.0,10.0,94,0.00,,,0.23,Wunderground v.1.15,2013-01-29 11:30:00,
2013-01-29 05:35:00,34.6,33.1,29.64,South,183,3.0,10.0,94,0.00,,,0.23,Wunderground v.1.15,2013-01-29 11:35:00,
2013-01-29 05:40:00,34.6,33.1,29.66,SSW,210,3.0,3.0,94,0.00,,,0.23,Wunderground v.1.15,2013-01-29 11:40:00,
2013-01-29 05:45:00,34.6,33.1,29.66,SE,140,1.0,10.0,94,0.00,,,0.23,Wunderground v.1.15,2013-01-29 11:45:00,
2013-01-29 05:55:00,34.6,33.3,29.64,SSE,150,0.0,2.0,95,0.00,,,0.23,Wunderground v.1.15,2013-01-29 11:55:00,
2013-01-29 06:00:00,34.6,33.3,29.65,SSE,150,0.0,10.0,95,0.00,,,0.23,Wunderground v.1.15,2013-01-29 12:00:00,
2013-01-29 06:05:00,34.6,33.1,29.65,SE,128,1.0,10.0,94,0.00,,,0.23,Wunderground v.1.15,2013-01-29 12:05:00,
2013-01-29 06:10:00,34.6,33.1,29.64,SE,128,1.0,10.0,94,0.00,,,0.23,Wunderground v.1.15,2013-01-29 12:10:00,
2013-01-29 06:20:00,34.5,33.2,29.63,SE,133,1.0,1.0,95,0.00,,,0.24,Wunderground v.1.15,2013-01-29 12:20:00,
2013-01-29 06:25:00,34.5,33.2,29.63,SE,142,1.0,2.0,95,0.00,,,0.24,Wunderground v.1.15,2013-01-29 12:25:00,
2013-01-29 06:30:00,34.5,33.2,29.61,SE,133,1.0,10.0,95,0.00,,,0.24,Wunderground v.1.15,2013-01-29 12:30:00,
2013-01-29 06:35:00,34.5,33.2,29.61,SE,126,1.0,10.0,95,0.00,,,0.24,Wunderground v.1.15,2013-01-29 12:35:00,
2013-01-29 06:40:00,34.6,33.3,29.61,SE,127,1.0,1.0,95,0.00,,,0.24,Wunderground v.1.15,2013-01-29 12:40:00,
2013-01-29 06:45:00,34.7,33.4,29.61,SE,138,1.0,10.0,95,0.00,,,0.24,Wunderground v.1.15,2013-01-29 12:45:00,
2013-01-29 06:50:00,34.6,33.3,29.61,ESE,123,1.0,1.0,95,0.00,,,0.24,Wunderground v.1.15,2013-01-29 12:50:00,
2013-01-29 06:55:00,34.6,33.3,29.61,ESE,123,1.0,10.0,95,0.00,,,0.24,Wunderground v.1.15,2013-01-29 12:55:00,
2013-01-29 07:00:00,34.5,33.2,29.61,East,96,1.0,10.0,95,0.00,,,0.24,Wunderground v.1.15,2013-01-29 13:00:00,
2013-01-29 07:10:00,34.3,33.0,29.62,ESE,123,1.0,1.0,95,0.00,,,0.24,Wunderground v.1.15,2013-01-29 13:10:00,
2013-01-29 07:15:00,34.3,33.0,29.62,ESE,123,1.0,10.0,95,0.00,,,0.24,Wunderground v.1.15,2013-01-29 13:15:00,
2013-01-29 07:20:00,34.3,33.0,29.62,ESE,123,0.0,10.0,95,0.00,,,0.24,Wunderground v.1.15,2013-01-29 13:20:00,
2013-01-29 07:25:00,34.3,33.0,29.60,ESE,123,0.0,10.0,95,0.00,,,0.24,Wunderground v.1.15,2013-01-29 13:25:00,
2013-01-29 07:30:00,34.3,33.0,29.60,ESE,123,1.0,10.0,95,0.00,,,0.25,Wunderground v.1.15,2013-01-29 13:30:00,
2013-01-29 07:35:00,34.4,33.1,29.60,ESE,117,1.0,10.0,95,0.00,,,0.25,Wunderground v.1.15,2013-01-29 13:35:00,
2013-01-29 07:40:00,34.4,33.1,29.59,ESE,117,1.0,1.0,95,0.00,,,0.25,Wunderground v.1.15,2013-01-29 13:40:00,
2013-01-29 07:45:00,34.5,33.2,29.59,ESE,117,1.0,10.0,95,0.00,,,0.25,Wunderground v.1.15,2013-01-29 13:45:00,
2013-01-29 07:55:00,34.6,33.3,29.61,NE,40,1.0,10.0,95,0.00,,,0.25,Wunderground v.1.15,2013-01-29 13:55:00,
2013-01-29 08:00:00,34.6,33.3,29.59,NE,55,2.0,2.0,95,0.00,,,0.25,Wunderground v.1.15,2013-01-29 14:00:00,
2013-01-29 08:05:00,34.5,33.2,29.58,SE,125,1.0,10.0,95,0.00,,,0.26,Wunderground v.1.15,2013-01-29 14:05:00,
2013-01-29 08:10:00,34.5,33.2,29.57,SE,128,2.0,2.0,95,0.00,,,0.26,Wunderground v.1.15,2013-01-29 14:10:00,
2013-01-29 08:15:00,34.6,33.3,29.56,ESE,123,2.0,10.0,95,0.00,,,0.26,Wunderground v.1.15,2013-01-29 14:15:00,
2013-01-29 08:20:00,34.8,33.5,29.56,South,173,1.0,10.0,95,0.00,,,0.26,Wunderground v.1.15,2013-01-29 14:20:00,
2013-01-29 08:25:00,35.1,33.8,29.56,SSW,199,2.0,10.0,95,0.00,,,0.26,Wunderground v.1.15,2013-01-29 14:25:00,
2013-01-29 08:30:00,35.3,34.0,29.56,South,170,2.0,2.0,95,0.00,,,0.27,Wunderground v.1.15,2013-01-29 14:30:00,
2013-01-29 08:35:00,35.5,34.2,29.57,SSE,151,1.0,10.0,95,0.00,,,0.27,Wunderground v.1.15,2013-01-29 14:35:00,
2013-01-29 08:40:00,35.6,34.3,29.58,SSE,151,1.0,1.0,95,0.00,,,0.27,Wunderground v.1.15,2013-01-29 14:40:00,
2013-01-29 08:45:00,35.6,34.3,29.58,SSE,151,0.0,10.0,95,0.00,,,0.27,Wunderground v.1.15,2013-01-29 14:45:00,
2013-01-29 08:50:00,35.6,34.3,29.57,SSE,151,0.0,10.0,95,0.00,,,0.27,Wunderground v.1.15,2013-01-29 14:50:00,
2013-01-29 08:55:00,35.8,34.5,29.56,SSE,151,0.0,10.0,95,0.00,,,0.27,Wunderground v.1.15,2013-01-29 14:55:00,
2013-01-29 09:00:00,35.9,34.6,29.57,SSE,151,0.0,10.0,95,0.00,,,0.27,Wunderground v.1.15,2013-01-29 15:00:00,
2013-01-29 09:05:00,36.0,34.7,29.57,SSE,151,0.0,10.0,95,0.00,,,0.27,Wunderground v.1.15,2013-01-29 15:05:00,
2013-01-29 09:10:00,36.2,34.9,29.57,SW,222,0.0,10.0,95,0.00,,,0.27,Wunderground v.1.15,2013-01-29 15:10:00,
2013-01-29 09:15:00,36.3,35.0,29.56,SW,222,0.0,10.0,95,0.00,,,0.27,Wunderground v.1.15,2013-01-29 15:15:00,
2013-01-29 09:20:00,36.4,35.1,29.56,SW,222,0.0,10.0,95,0.00,,,0.28,Wunderground v.1.15,2013-01-29 15:20:00,
2013-01-29 09:25:00,36.6,35.3,29.55,SW,222,0.0,10.0,95,0.00,,,0.28,Wunderground v.1.15,2013-01-29 15:25:00,
2013-01-29 09:30:00,36.7,35.4,29.55,SW,222,0.0,10.0,95,0.00,,,0.28,Wunderground v.1.15,2013-01-29 15:30:00,
2013-01-29 09:35:00,36.8,35.5,29.54,SW,222,0.0,10.0,95,0.00,,,0.28,Wunderground v.1.15,2013-01-29 15:35:00,
2013-01-29 09:40:00,37.1,36.1,29.54,South,175,1.0,10.0,96,0.00,,,0.28,Wunderground v.1.15,2013-01-29 15:40:00,
2013-01-29 09:45:00,37.2,36.2,29.53,South,175,1.0,10.0,96,0.00,,,0.28,Wunderground v.1.15,2013-01-29 15:45:00,
2013-01-29 09:55:00,37.5,36.5,29.53,SSW,209,1.0,10.0,96,0.00,,,0.29,Wunderground v.1.15,2013-01-29 15:55:00,
2013-01-29 10:00:00,37.8,36.8,29.53,SSW,209,2.0,2.0,96,0.00,,,0.29,Wunderground v.1.15,2013-01-29 16:00:00,
2013-01-29 10:05:00,38.0,37.0,29.54,SSW,209,1.0,10.0,96,0.00,,,0.29,Wunderground v.1.15,2013-01-29 16:05:00,
2013-01-29 10:10:00,38.1,36.8,29.54,SSW,209,1.0,10.0,95,0.00,,,0.29,Wunderground v.1.15,2013-01-29 16:10:00,
2013-01-29 10:15:00,38.2,36.9,29.53,SSW,209,1.0,10.0,95,0.00,,,0.30,Wunderground v.1.15,2013-01-29 16:15:00,
2013-01-29 10:20:00,38.3,37.3,29.52,SSW,209,1.0,1.0,96,0.00,,,0.30,Wunderground v.1.15,2013-01-29 16:20:00,
2013-01-29 10:25:00,38.7,37.7,29.51,SSW,209,0.0,10.0,96,0.00,,,0.30,Wunderground v.1.15,2013-01-29 16:25:00,
2013-01-29 10:30:00,38.9,37.9,29.50,SSW,209,0.0,10.0,96,0.00,,,0.30,Wunderground v.1.15,2013-01-29 16:30:00,
2013-01-29 10:35:00,39.1,38.1,29.50,SSW,209,0.0,10.0,96,0.00,,,0.30,Wunderground v.1.15,2013-01-29 16:35:00,
2013-01-29 10:40:00,39.2,38.2,29.51,SSW,209,0.0,10.0,96,0.00,,,0.30,Wunderground v.1.15,2013-01-29 16:40:00,
2013-01-29 10:45:00,39.3,38.3,29.51,SSW,209,0.0,10.0,96,0.00,,,0.31,Wunderground v.1.15,2013-01-29 16:45:00,
2013-01-29 10:50:00,39.4,38.4,29.51,SSW,209,1.0,10.0,96,0.00,,,0.31,Wunderground v.1.15,2013-01-29 16:50:00,
2013-01-29 10:55:00,39.6,38.6,29.51,SSW,209,1.0,10.0,96,0.00,,,0.31,Wunderground v.1.15,2013-01-29 16:55:00,
2013-01-29 11:00:00,39.9,38.9,29.50,SSW,209,1.0,1.0,96,0.00,,,0.31,Wunderground v.1.15,2013-01-29 17:00:00,
2013-01-29 11:05:00,40.1,39.1,29.50,SSW,209,1.0,10.0,96,0.00,,,0.32,Wunderground v.1.15,2013-01-29 17:05:00,
2013-01-29 11:10:00,40.3,39.3,29.51,WSW,255,1.0,10.0,96,0.00,,,0.32,Wunderground v.1.15,2013-01-29 17:10:00,
2013-01-29 11:15:00,40.3,39.3,29.51,WSW,255,2.0,10.0,96,0.00,,,0.32,Wunderground v.1.15,2013-01-29 17:15:00,
2013-01-29 11:20:00,40.4,39.4,29.51,WSW,254,1.0,10.0,96,0.00,,,0.32,Wunderground v.1.15,2013-01-29 17:20:00,
2013-01-29 11:25:00,40.6,39.5,29.50,WSW,254,1.0,10.0,96,0.00,,,0.32,Wunderground v.1.15,2013-01-29 17:25:00,
2013-01-29 11:30:00,40.8,39.7,29.51,SW,219,1.0,1.0,96,0.00,,,0.32,Wunderground v.1.15,2013-01-29 17:30:00,
2013-01-29 11:35:00,40.9,39.8,29.51,WSW,254,2.0,2.0,96,0.00,,,0.33,Wunderground v.1.15,2013-01-29 17:35:00,
2013-01-29 11:40:00,40.8,39.7,29.52,West,263,2.0,10.0,96,0.00,,,0.33,Wunderground v.1.15,2013-01-29 17:40:00,
2013-01-29 11:45:00,40.7,39.6,29.51,West,263,2.0,10.0,96,0.00,,,0.33,Wunderground v.1.15,2013-01-29 17:45:00,
2013-01-29 11:50:00,40.7,39.6,29.51,West,261,2.0,10.0,96,0.00,,,0.33,Wunderground v.1.15,2013-01-29 17:50:00,
2013-01-29 11:55:00,40.9,39.8,29.50,West,267,3.0,10.0,96,0.00,,,0.33,Wunderground v.1.15,2013-01-29 17:55:00,
2013-01-29 12:00:00,40.9,39.8,29.50,West,267,2.0,2.0,96,0.00,,,0.33,Wunderground v.1.15,2013-01-29 18:00:00,
2013-01-29 12:05:00,41.0,39.9,29.50,WNW,292,2.0,2.0,96,0.00,,,0.34,Wunderground v.1.15,2013-01-29 18:05:00,
2013-01-29 12:10:00,41.1,40.0,29.51,WNW,292,3.0,3.0,96,0.00,,,0.34,Wunderground v.1.15,2013-01-29 18:10:00,
2013-01-29 12:20:00,41.1,40.0,29.51,WNW,289,3.0,3.0,96,0.00,,,0.34,Wunderground v.1.15,2013-01-29 18:20:00,
2013-01-29 12:30:00,41.1,40.0,29.50,WNW,289,2.0,2.0,96,0.00,,,0.34,Wunderground v.1.15,2013-01-29 18:30:00,
2013-01-29 12:35:00,41.1,40.0,29.51,WNW,289,2.0,2.0,96,0.00,,,0.34,Wunderground v.1.15,2013-01-29 18:35:00,
2013-01-29 12:40:00,41.1,40.0,29.51,WNW,289,1.0,2.0,96,0.00,,,0.34,Wunderground v.1.15,2013-01-29 18:40:00,
2013-01-29 12:50:00,40.9,39.8,29.52,WNW,289,2.0,3.0,96,0.00,,,0.34,Wunderground v.1.15,2013-01-29 18:50:00,
2013-01-29 12:55:00,40.8,39.7,29.52,WNW,289,2.0,3.0,96,0.00,,,0.35,Wunderground v.1.15,2013-01-29 18:55:00,
2013-01-29 13:05:00,40.7,39.6,29.51,NNW,334,3.0,4.0,96,0.00,,,0.35,Wunderground v.1.15,2013-01-29 19:05:00,
2013-01-29 13:10:00,40.8,39.7,29.51,NW,319,3.0,3.0,96,0.00,,,0.35,Wunderground v.1.15,2013-01-29 19:10:00,
2013-01-29 13:20:00,40.8,39.7,29.50,NW,319,1.0,1.0,96,0.00,,,0.35,Wunderground v.1.15,2013-01-29 19:20:00,
2013-01-29 13:25:00,40.9,39.8,29.49,NW,319,0.0,2.0,96,0.00,,,0.35,Wunderground v.1.15,2013-01-29 19:25:00,
2013-01-29 13:30:00,40.9,39.8,29.51,NW,319,1.0,7.0,96,0.00,,,0.35,Wunderground v.1.15,2013-01-29 19:30:00,
2013-01-29 13:35:00,40.9,39.8,29.51,NW,321,3.0,7.0,96,0.00,,,0.35,Wunderground v.1.15,2013-01-29 19:35:00,
2013-01-29 13:40:00,40.6,39.5,29.50,NW,311,4.0,4.0,96,0.00,,,0.35,Wunderground v.1.15,2013-01-29 19:40:00,
2013-01-29 13:50:00,40.5,39.4,29.50,NNW,329,2.0,7.0,96,0.00,,,0.35,Wunderground v.1.15,2013-01-29 19:50:00,
2013-01-29 13:55:00,40.6,39.5,29.50,WNW,296,2.0,7.0,96,0.00,,,0.35,Wunderground v.1.15,2013-01-29 19:55:00,
2013-01-29 14:00:00,40.6,39.5,29.51,WNW,296,3.0,7.0,96,0.00,,,0.35,Wunderground v.1.15,2013-01-29 20:00:00,
2013-01-29 14:05:00,40.4,39.4,29.51,West,270,3.0,7.0,96,0.00,,,0.35,Wunderground v.1.15,2013-01-29 20:05:00,
2013-01-29 14:10:00,40.3,39.3,29.51,West,280,4.0,4.0,96,0.00,,,0.35,Wunderground v.1.15,2013-01-29 20:10:00,
2013-01-29 14:15:00,40.4,39.4,29.51,West,272,4.0,7.0,96,0.00,,,0.35,Wunderground v.1.15,2013-01-29 20:15:00,
2013-01-29 14:20:00,40.4,39.4,29.50,WNW,296,3.0,3.0,96,0.00,,,0.36,Wunderground v.1.15,2013-01-29 20:20:00,
2013-01-29 14:25:00,40.4,39.4,29.51,WNW,291,2.0,7.0,96,0.00,,,0.36,Wunderground v.1.15,2013-01-29 20:25:00,
2013-01-29 14:30:00,40.4,39.4,29.51,WNW,291,2.0,7.0,96,0.00,,,0.36,Wunderground v.1.15,2013-01-29 20:30:00,
2013-01-29 14:35:00,40.4,39.4,29.51,WNW,292,2.0,7.0,96,0.00,,,0.36,Wunderground v.1.15,2013-01-29 20:35:00,
2013-01-29 14:40:00,40.5,39.4,29.50,NW,309,2.0,2.0,96,0.00,,,0.36,Wunderground v.1.15,2013-01-29 20:40:00,
2013-01-29 14:45:00,40.5,39.4,29.51,NW,309,3.0,3.0,96,0.00,,,0.36,Wunderground v.1.15,2013-01-29 20:45:00,
2013-01-29 14:50:00,40.4,39.4,29.51,NW,317,3.0,7.0,96,0.00,,,0.36,Wunderground v.1.15,2013-01-29 20:50:00,
2013-01-29 14:55:00,40.3,39.3,29.50,NW,318,2.0,7.0,96,0.00,,,0.36,Wunderground v.1.15,2013-01-29 20:55:00,
2013-01-29 15:00:00,40.3,39.3,29.50,NW,318,2.0,2.0,96,0.00,,,0.36,Wunderground v.1.15,2013-01-29 21:00:00,
2013-01-29 15:05:00,40.2,39.2,29.52,NW,317,2.0,7.0,96,0.00,,,0.36,Wunderground v.1.15,2013-01-29 21:05:00,
2013-01-29 15:10:00,40.1,39.1,29.52,NW,317,2.0,7.0,96,0.00,,,0.36,Wunderground v.1.15,2013-01-29 21:10:00,
2013-01-29 15:20:00,40.1,39.1,29.52,NNW,335,2.0,7.0,96,0.00,,,0.36,Wunderground v.1.15,2013-01-29 21:20:00,
2013-01-29 15:30:00,40.1,39.1,29.53,NW,324,3.0,7.0,96,0.00,,,0.36,Wunderground v.1.15,2013-01-29 21:30:00,
2013-01-29 15:35:00,40.1,39.1,29.54,NW,311,3.0,7.0,96,0.00,,,0.36,Wunderground v.1.15,2013-01-29 21:35:00,
2013-01-29 15:40:00,40.1,39.1,29.53,North,349,3.0,7.0,96,0.00,,,0.36,Wunderground v.1.15,2013-01-29 21:40:00,
2013-01-29 15:45:00,40.0,39.0,29.53,North,360,4.0,7.0,96,0.00,,,0.36,Wunderground v.1.15,2013-01-29 21:45:00,
2013-01-29 15:50:00,39.9,38.9,29.53,North,360,4.0,7.0,96,0.00,,,0.36,Wunderground v.1.15,2013-01-29 21:50:00,
2013-01-29 15:55:00,39.8,38.8,29.52,NNE,15,4.0,7.0,96,0.00,,,0.36,Wunderground v.1.15,2013-01-29 21:55:00,
2013-01-29 16:00:00,39.8,38.8,29.52,NNE,25,4.0,7.0,96,0.00,,,0.36,Wunderground v.1.15,2013-01-29 22:00:00,
2013-01-29 16:05:00,39.7,38.7,29.54,North,9,3.0,7.0,96,0.00,,,0.36,Wunderground v.1.15,2013-01-29 22:05:00,
2013-01-29 16:10:00,39.7,38.7,29.54,NW,324,2.0,2.0,96,0.00,,,0.36,Wunderground v.1.15,2013-01-29 22:10:00,
2013-01-29 16:15:00,39.7,38.7,29.55,NW,309,2.0,3.0,96,0.00,,,0.36,Wunderground v.1.15,2013-01-29 22:15:00,
2013-01-29 16:20:00,39.7,38.7,29.56,NW,309,2.0,2.0,96,0.00,,,0.36,Wunderground v.1.15,2013-01-29 22:20:00,
2013-01-29 16:25:00,39.6,38.6,29.55,North,355,3.0,3.0,96,0.00,,,0.36,Wunderground v.1.15,2013-01-29 22:25:00,
2013-01-29 16:30:00,39.5,38.5,29.54,NNE,20,3.0,7.0,96,0.00,,,0.36,Wunderground v.1.15,2013-01-29 22:30:00,
2013-01-29 16:35:00,39.3,38.3,29.54,NNE,21,2.0,7.0,96,0.00,,,0.36,Wunderground v.1.15,2013-01-29 22:35:00,
2013-01-29 16:40:00,39.3,38.3,29.54,NNE,19,2.0,7.0,96,0.00,,,0.36,Wunderground v.1.15,2013-01-29 22:40:00,
2013-01-29 16:45:00,39.2,38.2,29.55,North,5,2.0,7.0,96,0.00,,,0.36,Wunderground v.1.15,2013-01-29 22:45:00,
2013-01-29 16:50:00,39.2,38.2,29.55,NNE,19,3.0,7.0,96,0.00,,,0.36,Wunderground v.1.15,2013-01-29 22:50:00,
2013-01-29 16:55:00,39.3,38.5,29.55,NNE,19,3.0,7.0,97,0.00,,,0.36,Wunderground v.1.15,2013-01-29 22:55:00,
2013-01-29 17:00:00,39.3,38.5,29.55,North,9,3.0,7.0,97,0.00,,,0.36,Wunderground v.1.15,2013-01-29 23:00:00,
2013-01-29 17:05:00,39.2,38.2,29.55,NNE,22,4.0,7.0,96,0.00,,,0.36,Wunderground v.1.15,2013-01-29 23:05:00,
2013-01-29 17:10:00,39.2,38.2,29.55,NNE,15,3.0,3.0,96,0.00,,,0.36,Wunderground v.1.15,2013-01-29 23:10:00,
2013-01-29 17:15:00,39.1,38.1,29.54,NE,43,2.0,7.0,96,0.00,,,0.36,Wunderground v.1.15,2013-01-29 23:15:00,
2013-01-29 17:20:00,39.0,38.0,29.55,NE,42,2.0,7.0,96,0.00,,,0.36,Wunderground v.1.15,2013-01-29 23:20:00,
2013-01-29 17:25:00,38.9,37.9,29.55,NE,42,3.0,7.0,96,0.00,,,0.36,Wunderground v.1.15,2013-01-29 23:25:00,
2013-01-29 17:30:00,39.0,38.0,29.54,NE,42,3.0,7.0,96,0.00,,,0.36,Wunderground v.1.15,2013-01-29 23:30:00,
2013-01-29 17:35:00,38.9,38.1,29.54,NE,44,2.0,7.0,97,0.00,,,0.36,Wunderground v.1.15,2013-01-29 23:35:00,
2013-01-29 17:40:00,38.9,38.1,29.55,NE,44,2.0,7.0,97,0.00,,,0.36,Wunderground v.1.15,2013-01-29 23:40:00,
2013-01-29 17:45:00,38.8,38.0,29.55,NE,44,2.0,7.0,97,0.00,,,0.36,Wunderground v.1.15,2013-01-29 23:45:00,
2013-01-29 17:50:00,38.9,38.1,29.56,East,89,2.0,7.0,97,0.00,,,0.36,Wunderground v.1.15,2013-01-29 23:50:00,
2013-01-29 17:55:00,38.9,38.1,29.56,East,83,2.0,7.0,97,0.00,,,0.36,Wunderground v.1.15,2013-01-29 23:55:00,
2013-01-29 18:00:00,38.8,38.0,29.57,East,82,2.0,7.0,97,0.00,,,0.36,Wunderground v.1.15,2013-01-30 00:00:00,
2013-01-29 18:05:00,38.7,37.9,29.57,East,83,2.0,7.0,97,0.00,,,0.36,Wunderground v.1.15,2013-01-30 00:05:00,
2013-01-29 18:10:00,38.6,37.6,29.57,East,83,2.0,2.0,96,0.00,,,0.36,Wunderground v.1.15,2013-01-30 00:10:00,
2013-01-29 18:15:00,38.4,37.4,29.56,ENE,69,2.0,7.0,96,0.00,,,0.36,Wunderground v.1.15,2013-01-30 00:15:00,
2013-01-29 18:20:00,38.4,37.4,29.56,ENE,69,2.0,7.0,96,0.00,,,0.36,Wunderground v.1.15,2013-01-30 00:20:00,
2013-01-29 18:25:00,38.4,37.6,29.56,ENE,57,2.0,7.0,97,0.00,,,0.36,Wunderground v.1.15,2013-01-30 00:25:00,
2013-01-29 18:30:00,38.4,37.6,29.56,ENE,57,3.0,7.0,97,0.00,,,0.36,Wunderground v.1.15,2013-01-30 00:30:00,
2013-01-29 18:35:00,38.3,37.5,29.56,ENE,57,3.0,7.0,97,0.00,,,0.36,Wunderground v.1.15,2013-01-30 00:35:00,
2013-01-29 18:40:00,38.1,37.3,29.56,ENE,57,2.0,2.0,97,0.00,,,0.36,Wunderground v.1.15,2013-01-30 00:40:00,
2013-01-29 18:45:00,38.0,37.0,29.56,ENE,57,2.0,7.0,96,0.00,,,0.36,Wunderground v.1.15,2013-01-30 00:45:00,
2013-01-29 18:55:00,37.8,36.8,29.55,ENE,65,1.0,3.0,96,0.00,,,0.36,Wunderground v.1.15,2013-01-30 00:55:00,
2013-01-29 19:05:00,37.6,36.6,29.56,NE,50,3.0,7.0,96,0.00,,,0.36,Wunderground v.1.15,2013-01-30 01:05:00,
2013-01-29 19:10:00,37.5,36.5,29.56,ENE,67,3.0,7.0,96,0.00,,,0.36,Wunderground v.1.15,2013-01-30 01:10:00,
2013-01-29 19:15:00,37.3,36.3,29.56,ENE,65,3.0,7.0,96,0.00,,,0.36,Wunderground v.1.15,2013-01-30 01:15:00,
2013-01-29 19:20:00,37.2,36.2,29.56,ENE,71,3.0,7.0,96,0.00,,,0.36,Wunderground v.1.15,2013-01-30 01:20:00,
2013-01-29 19:30:00,37.1,36.3,29.55,ENE,65,4.0,4.0,97,0.00,,,0.36,Wunderground v.1.15,2013-01-30 01:30:00,
2013-01-29 19:35:00,37.1,36.3,29.55,ENE,71,4.0,7.0,97,0.00,,,0.36,Wunderground v.1.15,2013-01-30 01:35:00,
2013-01-29 19:40:00,37.0,36.2,29.56,NE,46,4.0,4.0,97,0.00,,,0.36,Wunderground v.1.15,2013-01-30 01:40:00,
2013-01-29 19:45:00,36.9,35.9,29.56,NE,46,3.0,7.0,96,0.00,,,0.36,Wunderground v.1.15,2013-01-30 01:45:00,
2013-01-29 19:50:00,36.8,35.8,29.56,ENE,63,3.0,7.0,96,0.00,,,0.36,Wunderground v.1.15,2013-01-30 01:50:00,
2013-01-29 19:55:00,36.8,35.8,29.56,ENE,57,3.0,7.0,96,0.00,,,0.36,Wunderground v.1.15,2013-01-30 01:55:00,
2013-01-29 20:00:00,36.7,35.7,29.56,ENE,57,3.0,7.0,96,0.00,,,0.36,Wunderground v.1.15,2013-01-30 02:00:00,
2013-01-29 20:05:00,36.6,35.6,29.55,NE,46,3.0,7.0,96,0.00,,,0.36,Wunderground v.1.15,2013-01-30 02:05:00,
2013-01-29 20:10:00,36.6,35.6,29.55,NE,36,4.0,4.0,96,0.00,,,0.36,Wunderground v.1.15,2013-01-30 02:10:00,
2013-01-29 20:15:00,36.5,35.5,29.55,ENE,63,4.0,5.0,96,0.00,,,0.36,Wunderground v.1.15,2013-01-30 02:15:00,
2013-01-29 20:20:00,36.5,35.5,29.55,NNE,29,5.0,5.0,96,0.00,,,0.36,Wunderground v.1.15,2013-01-30 02:20:00,
2013-01-29 20:25:00,36.4,35.4,29.54,NE,55,5.0,7.0,96,0.00,,,0.36,Wunderground v.1.15,2013-01-30 02:25:00,
2013-01-29 20:30:00,36.4,35.4,29.54,NE,39,5.0,7.0,96,0.00,,,0.36,Wunderground v.1.15,2013-01-30 02:30:00,
2013-01-29 20:35:00,36.2,35.2,29.54,NE,46,5.0,7.0,96,0.00,,,0.36,Wunderground v.1.15,2013-01-30 02:35:00,
2013-01-29 20:40:00,36.2,35.2,29.54,East,87,5.0,8.0,96,0.00,,,0.36,Wunderground v.1.15,2013-01-30 02:40:00,
2013-01-29 20:50:00,36.1,35.1,29.54,ENE,75,6.0,6.0,96,0.00,,,0.36,Wunderground v.1.15,2013-01-30 02:50:00,
2013-01-29 20:55:00,36.0,35.0,29.54,NE,46,6.0,7.0,96,0.00,,,0.36,Wunderground v.1.15,2013-01-30 02:55:00,
2013-01-29 21:00:00,36.0,35.0,29.54,East,90,6.0,7.0,96,0.00,,,0.36,Wunderground v.1.15,2013-01-30 03:00:00,
2013-01-29 21:05:00,35.9,34.9,29.54,ENE,60,6.0,7.0,96,0.00,,,0.36,Wunderground v.1.15,2013-01-30 03:05:00,
2013-01-29 21:10:00,35.9,34.9,29.55,NE,45,5.0,7.0,96,0.00,,,0.36,Wunderground v.1.15,2013-01-30 03:10:00,
2013-01-29 21:15:00,36.0,35.0,29.55,NE,47,5.0,7.0,96,0.00,,,0.36,Wunderground v.1.15,2013-01-30 03:15:00,
2013-01-29 21:20:00,36.0,35.0,29.55,NE,53,5.0,5.0,96,0.00,,,0.36,Wunderground v.1.15,2013-01-30 03:20:00,
2013-01-29 21:25:00,35.9,34.9,29.55,NE,46,6.0,11.0,96,0.00,,,0.36,Wunderground v.1.15,2013-01-30 03:25:00,
2013-01-29 21:30:00,35.9,34.9,29.56,NNE,26,6.0,7.0,96,0.00,,,0.36,Wunderground v.1.15,2013-01-30 03:30:00,
2013-01-29 21:35:00,35.9,34.9,29.55,NE,46,6.0,7.0,96,0.00,,,0.36,Wunderground v.1.15,2013-01-30 03:35:00,
2013-01-29 21:40:00,35.8,34.8,29.54,NE,35,6.0,7.0,96,0.00,,,0.36,Wunderground v.1.15,2013-01-30 03:40:00,
2013-01-29 21:45:00,35.7,34.4,29.54,NE,54,6.0,7.0,95,0.00,,,0.36,Wunderground v.1.15,2013-01-30 03:45:00,
2013-01-29 21:55:00,35.5,34.5,29.53,NE,53,6.0,7.0,96,0.00,,,0.37,Wunderground v.1.15,2013-01-30 03:55:00,
2013-01-29 22:00:00,35.4,34.4,29.53,ENE,65,6.0,7.0,96,0.00,,,0.37,Wunderground v.1.15,2013-01-30 04:00:00,
2013-01-29 22:05:00,35.3,34.3,29.54,NE,43,5.0,7.0,96,0.00,,,0.37,Wunderground v.1.15,2013-01-30 04:05:00,
2013-01-29 22:10:00,35.3,34.0,29.53,ENE,76,5.0,7.0,95,0.00,,,0.37,Wunderground v.1.15,2013-01-30 04:10:00,
2013-01-29 22:15:00,35.2,33.9,29.52,NE,51,4.0,7.0,95,0.00,,,0.37,Wunderground v.1.15,2013-01-30 04:15:00,
2013-01-29 22:20:00,35.1,33.8,29.53,ENE,76,5.0,7.0,95,0.00,,,0.37,Wunderground v.1.15,2013-01-30 04:20:00,
2013-01-29 22:25:00,35.1,33.8,29.54,NNE,28,5.0,7.0,95,0.00,,,0.37,Wunderground v.1.15,2013-01-30 04:25:00,
2013-01-29 22:30:00,35.1,33.8,29.53,ENE,58,5.0,7.0,95,0.00,,,0.37,Wunderground v.1.15,2013-01-30 04:30:00,
2013-01-29 22:35:00,35.1,33.8,29.53,NE,54,5.0,7.0,95,0.00,,,0.37,Wunderground v.1.15,2013-01-30 04:35:00,
2013-01-29 22:45:00,35.0,34.0,29.55,NNE,33,4.0,7.0,96,0.00,,,0.38,Wunderground v.1.15,2013-01-30 04:45:00,
2013-01-29 22:50:00,35.0,34.0,29.54,NNE,32,5.0,5.0,96,0.00,,,0.38,Wunderground v.1.15,2013-01-30 04:50:00,
2013-01-29 22:55:00,35.0,34.0,29.54,NNE,15,5.0,7.0,96,0.00,,,0.38,Wunderground v.1.15,2013-01-30 04:55:00,
2013-01-29 23:00:00,34.9,33.9,29.54,NE,41,6.0,6.0,96,0.00,,,0.38,Wunderground v.1.15,2013-01-30 05:00:00,
2013-01-29 23:05:00,34.9,33.9,29.54,NE,35,4.0,7.0,96,0.00,,,0.38,Wunderground v.1.15,2013-01-30 05:05:00,
2013-01-29 23:10:00,34.8,33.8,29.54,NE,44,4.0,7.0,96,0.00,,,0.38,Wunderground v.1.15,2013-01-30 05:10:00,
2013-01-29 23:20:00,34.8,33.8,29.54,NE,56,5.0,7.0,96,0.00,,,0.38,Wunderground v.1.15,2013-01-30 05:20:00,
2013-01-29 23:25:00,34.7,33.7,29.54,NE,38,5.0,7.0,96,0.00,,,0.38,Wunderground v.1.15,2013-01-30 05:25:00,
2013-01-29 23:30:00,34.6,33.3,29.53,NE,42,6.0,6.0,95,0.00,,,0.38,Wunderground v.1.15,2013-01-30 05:30:00,
2013-01-29 23:35:00,34.6,33.3,29.52,NE,46,4.0,7.0,95,0.00,,,0.38,Wunderground v.1.15,2013-01-30 05:35:00,
2013-01-29 23:40:00,34.5,33.2,29.52,ENE,74,4.0,4.0,95,0.00,,,0.38,Wunderground v.1.15,2013-01-30 05:40:00,
2013-01-29 23:45:00,34.4,33.1,29.52,NNE,32,4.0,5.0,95,0.00,,,0.38,Wunderground v.1.15,2013-01-30 05:45:00,
2013-01-29 23:55:00,34.3,33.3,29.53,NE,51,4.0,7.0,96,0.00,,,0.38,Wunderground v.1.15,2013-01-30 05:55:00,